Starlink 6278

operational
NORAD ID: 56412 Int'l Des: 2023-061 Owner: SPXS Country: US Constellation: starlink
LEOCIRCULAR

关于 Starlink 6278

正在加载描述...

实时位置

正在加载3D地球...

即将过境

高度历史

Altitude vs Time

uPlot chart will show altitude changes over time

两行轨道根数

1 56412U 23061AQ 25258.69767864 -.00000531 00000-0 -24249-4 0 9991
2 56412 43.0053 55.1177 0001256 269.5143 90.5555 15.02534210130584
Epoch: Sep 15, 2025 • Age: 24 hours

当前状态

高度 563.0 km
速度 7.59 km/s
星下点 42.62°N, 101.88°W
发射日期 May 4, 2023
运行时间 2.3 years
类型 internet

技术详情

分类 Payload
质量 305.00 kg
干质量 290.00 kg
总质量 305.00 kg
长度 0.20 m
直径 2.80 m
跨度 9.00 m
形状 Box + pan
制造商 SPXS
平台类型 Starlink
阶段状态 In Orbit
所有者/国家 SPXS/US

大型星座

Loading constellations...